Regional Weather Roundup
Issued by NWS Raleigh/Durham, NC

Home | Current Version | Previous Version | Text Only | Print | Product List | Glossary On
Versions: 1 2 3 4 5 6 7 8 9 10 11 12 13 14 15 16 17 18 19 20 21 22 23 24 25 26 27 28 29 30 31 32 33 34 35 36 37 38 39 40 41 42 43 44 45 46 47 48 49 50
000
ASUS42 KRAH 190010
RWRRAH
NORTH CAROLINA WEATHER ROUNDUP
NATIONAL WEATHER SERVICE RALEIGH NC
800 PM EDT FRI AUG 18 2017

NOTE: "FAIR" INDICATES FEW OR NO CLOUDS BELOW 12,000 FEET WITH NO
SIGNIFICANT WEATHER AND/OR OBSTRUCTIONS TO VISIBILITY.

NCZ001-053-055-056-065-067-190100-
WESTERN NORTH CAROLINA

CITY           SKY/WX    TMP DP  RH WIND       PRES   REMARKS
ASHEVILLE      PTCLDY    80  66  62 N8        30.00R
JEFFERSON      PTCLDY    72  64  75 NW3       30.05R
MORGANTON      CLOUDY    80  73  78 CALM      29.97R
HICKORY        CLOUDY    80  72  76 N3        29.92F
RUTHERFORDTON  CLEAR     81  78  92 CALM      29.94S
MOUNT AIRY     CLOUDY    78  73  82 CALM      29.94S
BOONE          CLEAR     73  64  73 W7        30.06R
$$

NCZ021-022-025-041-071-084-088-190100-
CENTRAL NORTH CAROLINA

CITY           SKY/WX    TMP DP  RH WIND       PRES   REMARKS
CHARLOTTE      MOCLDY    83  72  69 N6        29.91R
GREENSBORO     TSTM      81  73  76 W13       29.89R
WINSTON-SALEM  CLOUDY    78  73  84 NW7       29.91S
RALEIGH-DURHAM PTCLDY    90  73  57 SW12      29.85R HX  98
FORT BRAGG     CLEAR     91  72  53 SW7       29.86R HX  97
FAYETTEVILLE   CLEAR     89  75  63 S9        29.86R HX  99
BURLINGTON     PTCLDY    88  72  58 SW6       29.85S
LAURINBURG     CLEAR     87  77  72 S9        29.88R HX  99
$$

NCZ011-015-027-028-043-044-047-080-103-190100-
NORTHEASTERN NORTH CAROLINA

CITY           SKY/WX    TMP DP  RH WIND       PRES   REMARKS
ROCKY MT-WILSO CLEAR     85  77  77 S6        29.84S HX  95
GREENVILLE     CLEAR     88  81  79 SW8       29.86F HX 105
WASHINGTON     CLEAR     86  79  78 S8        29.85S HX  99
ELIZABETH CITY CLEAR     83  79  88 S9        29.84F
MANTEO         PTCLDY    83  80  90 SW16      29.86F HX  95
CAPE HATTERAS  NOT AVBL
$$

NCZ078-087-090-091-093-098-101-190100-
SOUTHEASTERN NORTH CAROLINA

CITY           SKY/WX    TMP DP  RH WIND       PRES   REMARKS
LUMBERTON      CLEAR     85  75  72 S8        29.87R
GOLDSBORO      CLEAR     89  77  69 S6        29.85R HX 101
KINSTON        CLEAR     88  75  66 MISG        N/A  HX  97
KENANSVILLE    PTCLDY    86  79  79 CALM      29.87S HX  99
NEW BERN       CLEAR     83  79  88 S10       29.88S
CHERRY POINT   CLEAR     84  78  82 S9        29.89S HX  95
BEAUFORT       CLEAR     84  83  96 SW17G25   29.89S HX 102
JACKSONVILLE   CLEAR     84  80  88 S9        29.88R HX  97
WILMINGTON     CLEAR     86  77  74 S10       29.90R HX  97
$$




USA.gov is the U.S. government's official web portal to all federal, state and local government web resources and services.